Retour au catalogue

USA 425

ActifMilitaireVLEO
NORAD 61648·PAYLOAD·🇺🇸 United States

Lancé Oct 24, 2024 depuis Vandenberg Space Force Base

Loading…

Prochains Passages (prochaines 24 heures)

TLE

PériméSource: Mike McCants

Époque: Aug 10, 2026, 20:54 UTC

1 61648U 24192E   26222.87117986 0.00000000  00000-0  00000-0 0    07
2 61648  70.0170 129.6911 0003000 293.1917  66.8083 14.96713490    01

Suivez USA 425 en temps réel avec AllMySat

Download on the App Store